Flag for U.S.A. Weather past 2 weeks in Lakeland, Florida, U.S.A.

Now
61 °F

Clear.


Feels Like: 61 °F
Forecast: 64 / 80 °F
Wind: No wind

Location: Lakeland Regional

Current Time: Dec 29, 2014 at 1:45:42 AM

Latest Report: Dec 29, 2014 at 1:15 AM


Visibility: 7 mi

Pressure: 30.12 "Hg

Humidity: 94%

Dew point: 59 °F

Location of LakelandLocation

Historic Weather in Lakeland — Graph

°F

Lakeland temperature yesterday

Maximum temperature yesterday: 81 °F (at 12:50 PM)
Minimum temperature yesterday: 61 °F (at 10:55 PM)
Average temperature yesterday: 68 °F

Past Weeks' High & Low Weather Summary

 TemperatureHumidityPressure
High82 °F (Dec 24, 12:50 PM)100% (Dec 14, 11:55 PM)30.29 "Hg (Dec 14, 11:55 PM)
Low37 °F (Dec 15, 4:15 AM)29% (Dec 14, 3:56 PM)29.84 "Hg (Dec 24, 2:50 PM)
Average61 °F83%30.10 "Hg
* Reported Dec 14 12:15 AM — Dec 29 12:55 AM, Lakeland, Weather by CustomWeather, © 2014

Note: Actual official high and low records may vary slightly from our data, if they occured in-between our weather recording intervals... More about our weather records

Advertising

Lakeland weather history for previous 24 hours

 ConditionsComfort  
Time TempWeatherWind HumidityBarometerVisibility
12:55 AM
Dec 29
61 °FClear.No wind94%30.13 "Hg7 mi
12:35 AM61 °FFog.3 mph94%30.13 "Hg5 mi
12:15 AM61 °FPassing clouds.No wind100%30.14 "Hg7 mi
11:55 PM
Dec 28
61 °FPassing clouds.No wind100%30.14 "Hg7 mi
11:35 PM61 °FClear.No wind100%30.14 "Hg10 mi
11:15 PM63 °FClear.No wind94%30.14 "Hg7 mi
10:55 PM61 °FClear.No wind100%30.14 "Hg7 mi
10:15 PM63 °FClear.No wind94%30.15 "Hg7 mi
9:55 PM63 °FClear.No wind100%30.15 "Hg7 mi
9:15 PM64 °FClear.No wind94%30.13 "Hg7 mi
6:52 PM72 °FPassing clouds.No wind78%30.12 "Hg12 mi
5:50 PM73 °FPassing clouds.5 mph74%30.11 "Hg12 mi
4:50 PM77 °FScattered clouds.6 mph69%30.10 "Hg12 mi
3:50 PM79 °FScattered clouds.7 mph65%30.10 "Hg12 mi
2:50 PM81 °FScattered clouds.5 mph58%30.10 "Hg12 mi
1:50 PM81 °FPartly sunny.9 mph58%30.10 "Hg10 mi
12:50 PM81 °FScattered clouds.10 mph58%30.12 "Hg10 mi
11:50 AM79 °FPassing clouds.12 mph61%30.15 "Hg10 mi
10:50 AM73 °FPassing clouds.5 mph83%30.18 "Hg10 mi
10:28 AM72 °FScattered clouds.6 mph94%30.19 "Hg7 mi
9:55 AM68 °FFog.3 mph100%30.19 "Hg1 mi
8:50 AM66 °FFog.3 mph100%30.17 "Hg1 mi
7:50 AM64 °FFog.No wind100%30.17 "Hg1 mi
6:53 AM63 °FFog.No wind100%30.15 "Hg1 mi
5:50 AM63 °FPassing clouds.No wind100%30.14 "Hg10 mi
4:35 AM63 °FPassing clouds.No wind100%30.13 "Hg7 mi
4:15 AM64 °FOvercast.No wind94%30.13 "Hg7 mi
3:55 AM63 °FFog.No wind100%30.14 "Hg1 mi
3:15 AM64 °FFog.No wind94%30.15 "Hg1 mi
2:55 AM64 °FFog.No wind100%30.15 "Hg4 mi
2:35 AM64 °FPassing clouds.No wind100%30.15 "Hg7 mi
2:15 AM64 °FPassing clouds.No wind100%30.16 "Hg10 mi
1:55 AM66 °FPassing clouds.No wind94%30.16 "Hg10 mi
1:35 AM68 °FPassing clouds.No wind88%30.16 "Hg10 mi
1:15 AM68 °FMostly cloudy.No wind88%30.17 "Hg10 mi
Weather by CustomWeather, © 2014

See weather overviewHow to use our weather pages